Regional Weather Roundup
Issued by NWS Upton, NY

Current Version | Previous Version | Graphics & Text | Print | Product List | Glossary Off
Versions: 1 2 3 4 5 6 7 8 9 10 11 12 13 14 15 16 17 18 19 20 21 22 23 24 25 26 27 28 29 30 31 32 33 34 35 36 37 38 39 40 41 42 43 44 45 46 47 48 49 50

615
ASUS41 KOKX 101804
RWROKX

REGIONAL WEATHER ROUNDUP
NATIONAL WEATHER SERVICE NEW YORK NY
100 PM EST WED FEB 10 2016

NOTE: "FAIR" INDICATES FEW OR NO CLOUDS BELOW 12,000 FEET WITH NO
SIGNIFICANT WEATHER AND/OR OBSTRUCTIONS TO VISIBILITY.

NYZ071-072-176-178-NJZ106-104-101900-
NEW YORK CITY METRO AREA


CITY           SKY/WX    TMP DP  RH WIND       PRES   REMARKS
CENTRAL PARK   CLOUDY    38  22  52 MISG      29.62F
LAGUARDIA APRT CLOUDY    39  24  55 SW13      29.60F WCI  31
KENNEDY INTL   PTSUNNY   39  28  64 W14       29.62F WCI  31
NEWARK/LIBERTY PTSUNNY   40  23  50 W14G22    29.61F WCI  32
BRNX BOT. GARD   N/A     37  23  56 W16       29.62S WCI  28
TETERBORO      CLOUDY    39  23  52 W9        29.59F WCI  33
$$

NYZ177-179-078>081-101900-
LONG ISLAND NEW YORK

CITY           SKY/WX    TMP DP  RH WIND       PRES   REMARKS
FARMINGDALE    CLOUDY    38  26  62 W13       29.60F WCI  30
ISLIP          CLOUDY    37  26  64 W10       29.57S WCI  30
SHIRLEY        CLOUDY    36  30  79 W10       29.59S WCI  28
RIVERHEAD        N/A     36  30  80 NW6       29.55F WCI  31
WESTHAMPTON    LGT SNOW  35  31  85 W8        29.59F FOG     WCI  29
EAST HAMPTON   CLOUDY    34  30  86 W8        29.57F WCI  27
MONTAUK POINT    N/A     34  32  92 W7        29.58F WCI  28
$$

NYZ052-065-067-101900-
HUDSON VALLEY

CITY           SKY/WX    TMP DP  RH WIND       PRES   REMARKS
WHITE PLAINS   PTSUNNY   37  22  54 NW8       29.56F WCI  31
NEWBURGH       PTSUNNY   37  21  52 W17G29    29.57F WCI  28
MONTGOMERY     CLOUDY    38  20  48 W13G18    29.56F WCI  30
POUGHKEEPSIE   PTSUNNY   40  20  44 W17       29.56F WCI  31
ALBANY         PTSUNNY   37  21  52 W13       29.54F WCI  29
$$

NJZ001-105-106-008-010-013-015-019>022-104-101900-
NEW JERSEY

CITY           SKY/WX    TMP DP  RH WIND       PRES   REMARKS
NEWARK/LIBERTY PTSUNNY   40  23  50 W14G22    29.61F WCI  32
TETERBORO      CLOUDY    39  23  52 W9        29.59F WCI  33
CALDWELL       CLOUDY    37  19  48 NW14      29.61F WCI  28
MORRISTOWN     CLOUDY    37  23  56 W12G21    29.62F WCI  30
SOMERVILLE     CLOUDY    36  21  54 W8G20     29.62F WCI  30
SUSSEX         CLOUDY    36  18  48 W8G16     29.59F WCI  30
ANDOVER          N/A     35  20  54 VRB3      29.60F
TRENTON        PTSUNNY   36  21  54 W16G29    29.65F WCI  26
MILLVILLE      PTSUNNY   37  23  56 W18G29    29.72F WCI  27
ATLANTIC CITY  CLOUDY    36  23  59 W17G25    29.69F WCI  26
WRIGHTSTOWN    CLOUDY    37  27  67 NW14G23   29.64F WCI  28
TOMS RIVER     PTSUNNY   36  21  55 W16       29.66F WCI  26
BELMAR         PTSUNNY   36  21  55 W15G21    29.64S WCI  26
$$

PAZ047>061-062-071-101900-
EASTERN PENNSYLVANIA

CITY           SKY/WX    TMP DP  RH WIND       PRES   REMARKS
PHILADELPHIA   CLOUDY    35  18  49 W16G26    29.72F WCI  25
ALLENTOWN      CLOUDY    33  18  53 W16G22    29.66F WCI  23
SCRANTON       FLURRIES  30  21  69 SW15G21   29.60F WCI  19
$$

CTZ002-004>006-009-010-012-RIZ004-006-007-MAZ004-011-015-101900-
SOUTHERN NEW ENGLAND
 IN CT

CITY           SKY/WX    TMP DP  RH WIND       PRES   REMARKS
BRADLEY INTL   CLOUDY    32  29  88 S6        29.54F WCI  26
HARTFORD       LGT SNOW  35  30  82 CALM      29.57S
DANBURY        PTSUNNY   38  19  46 W8G18     29.56F WCI  32
WTRBRY/OXFORD  CLOUDY    34  23  64 NW6       29.55F WCI  29
BRIDGEPORT     CLOUDY    39  26  59 W8        29.57F WCI  33
MERIDEN        CLOUDY    36  28  73 CALM      29.56F
NEW HAVEN      CLOUDY    36  30  79 NW3       29.57F
CHESTER        CLOUDY    34  30  86 W5        29.55F WCI  30
GROTON         CLOUDY    34  34 100 W5        29.56F WCI  30
WILLIMANTIC    CLOUDY    33  28  81 CALM      29.56F HAZE

 IN RI

CITY           SKY/WX    TMP DP  RH WIND       PRES   REMARKS
PROVIDENCE     LGT SNOW  33  30  88 CALM      29.56F FOG
BLOCK ISLAND   CLOUDY    36  34  93 W6        29.55F WCI  31
WESTERLY       MIX PCPN  35  33  92 CALM      29.56F FOG

 IN MA

CITY           SKY/WX    TMP DP  RH WIND       PRES   REMARKS
BOSTON         CLOUDY    33  29  85 S6        29.55F WCI  28
WORCESTER      LGT SNOW  30  26  85 SW8       29.50F VSB 1   WCI  22
WESTFIELD      CLOUDY    32  28  85 S3        29.54F
PROVINCETOWN   PTSUNNY   34  27  75 CALM      29.57S
NANTUCKET      CLOUDY    37  31  78 NE5       29.55F WCI  33
$$

ANZ330-335-338-340-345-350-353-355-101900-
COASTAL MARINE OBSERVATIONS


STATION/POSITION TIME  SKY/WX   TEMP    WIND        PRES    VSBY  WAVE
                                AIR SEA DIR/SP/G                  HT/PER
                 (UTC)          (F)     (DEG/KT/KT) (MB)    (MI)  (FT/S)
NY HARB ENTRANCE 1650            35 43  270/ 19/ 23 1002.8          5/14
4S FIRE IS       NOT AVBL
20S FIRE ISLAND  1650            35 44  290/ 21/ 25 1002.5          6/11
GREAT SOUTH BAY  NOT AVBL
23SW MTP         1750            36 45  280/ 12/ 14 1000.9          5/12
HUDSON CANYON    1650            38 49              1002.4          8/11
KINGS POINT      1700            37 39  310/ 10/ 13 1002.1
EXECUTION ROCKS  NOT AVBL
CENTRAL LI SOUND 1700            35     270/ 10/ 12   N/A           1
EASTERN LI SOUND 1700            35 42  260/  4/  8   N/A
ROBBINS REEF     1700            35     260/ 14/ 16 1002.4
$$


>>>>>>>>>>>>>>>>>>>>>>>>>>>> KEY <<<<<<<<<<<<<<<<<<<<<<<<<<<
>                                                          <
>     SKY/WX - SKY CONDITION/PRESENT WEATHER               <
>     TMP    - TEMPERATURE IN FAHRENHEIT                   <
>     DP     - DEWPOINT IN FAHRENHEIT                      <
>     RH     - RELATIVE HUMIDITY IN PERCENT                <
>     WIND   - DIRECTION AND SPEED IN MPH                  <
>     PRES   - MEAN SEA LEVEL PRESSURE IN INCHES OF HG     <
>     WCI    - WIND CHILL INDEX                            <
>     VSB    - VISIBILITY IN MILES                         <
>     HX     - HEAT INDEX                                  <
>     TC     - TEMPERATURE IN CELSIUS                      <
>     VRB    - VARIABLE WIND DIRECTION                     <
>                                                          <
>>>>>>>>>>>>>>>>>>>>>>>>>>>> KEY <<<<<<<<<<<<<<<<<<<<<<<<<<<






USA.gov is the U.S. government's official web portal to all federal, state and local government web resources and services.